Cheyenne, WY

5:59 AM MDT on August 30, 2016 (GMT -0600)
Cheyenne

Weather History for KCYS - February, 2014

Change the Weather History Date:

Friday, February 14, 2014

  Actual Average Record
Temperature  
Mean Temperature 36 °F 29 °F  
Max Temperature 44 °F 40 °F 64 °F (1924)
Min Temperature 28 °F 18 °F -20 °F (1895)
Degree Days  
Heating Degree Days 29 36  
Month to date heating degree days 694 512  
Since 1 July heating degree days 4718 4539  
Cooling Degree Days 0 0  
Month to date cooling degree days 0 0  
Year to date cooling degree days 0 0  
Moisture  
Dew Point 21 °F    
Average Humidity 53    
Maximum Humidity 78    
Minimum Humidity 28    
Precipitation  
Precipitation 0.00 in 0.02 in 0.53 in (1885)
Month to date precipitation 0.42 0.20  
Year to date precipitation 1.43 0.53  
Snow  
Snow 0.00 in 0.30 in 5.30 in (1885)
Month to date snowfall 7.8 3.7  
Since 1 July snowfall 48.5 32.3  
Snow Depth 1.00 in    
Sea Level Pressure  
Sea Level Pressure 29.91 in    
Wind  
Wind Speed 13 mph (WNW)    
Max Wind Speed 32 mph    
Max Gust Speed 44 mph    
Visibility 10 miles    
Events      
T = Trace of Precipitation, MM = Missing Value Source: NWS Daily Summary

Daily Weather History Graph

Daily Weather History Graph

Search for Another Location

Airport or City:

Trip Planner

Search our weather history database for the weather conditions in past years. The results will help you decide how hot, cold, wet, or windy it might be!

Date:

Astronomy

Feb. 14, 2014 Rise Set
Actual Time 6:55 AM MST 5:32 PM MST
Civil Twilight 6:26 AM MST 6:00 PM MST
Nautical Twilight 5:54 AM MST 6:32 PM MST
Astronomical Twilight 5:22 AM MST 7:04 PM MST
Moon 5:39 PM MST (2/14) 6:23 AM MST (2/14)
Length of Visible Light 11h 33m
Length of Day
10h 37m
Full, 100% of the Moon is Illuminated
Feb 14
Full
Feb 14
Full
Feb 22
Last Quarter
Mar 1
New
Mar 8
First Quarter

Hourly Weather History & Observations

Time (MST) Temp. Windchill Dew Point Humidity Pressure Visibility Wind Dir Wind Speed Gust Speed Precip Events Conditions
12:53 AM 39.0 °F 27.6 °F 21.0 °F 49% 29.78 in 10.0 mi WNW 27.6 mph 40.3 mph N/A   Overcast
1:53 AM 37.0 °F 24.9 °F 19.0 °F 48% 29.83 in 10.0 mi NNW 27.6 mph 40.3 mph N/A   Mostly Cloudy
2:53 AM 36.0 °F 23.2 °F 21.0 °F 55% 29.84 in 10.0 mi NW 28.8 mph 43.7 mph N/A   Partly Cloudy
3:53 AM 35.1 °F 23.3 °F 19.9 °F 54% 29.87 in 10.0 mi NW 23.0 mph 39.1 mph N/A   Mostly Cloudy
4:20 AM 30.2 °F 19.3 °F 26.6 °F 86% 29.93 in 10.0 mi North 15.0 mph 21.9 mph N/A   Overcast
4:53 AM 28.0 °F 18.6 °F 23.0 °F 81% 29.95 in 10.0 mi North 10.4 mph - N/A   Scattered Clouds
5:53 AM 28.9 °F 20.4 °F 21.0 °F 72% 29.97 in 10.0 mi NNW 9.2 mph - N/A   Clear
6:53 AM 28.9 °F 22.8 °F 19.0 °F 67% 30.00 in 10.0 mi NW 5.8 mph - N/A   Clear
7:53 AM 30.0 °F 26.5 °F 18.0 °F 61% 30.03 in 10.0 mi NW 3.5 mph - N/A   Clear
8:53 AM 33.1 °F 23.9 °F 15.1 °F 48% 30.02 in 10.0 mi NW 12.7 mph - N/A   Clear
9:53 AM 35.1 °F 25.5 °F 12.9 °F 40% 30.01 in 10.0 mi NW 15.0 mph 26.5 mph N/A   Scattered Clouds
10:53 AM 37.0 °F 28.5 °F 14.0 °F 39% 29.99 in 10.0 mi NNW 13.8 mph 20.7 mph N/A   Clear
11:53 AM 37.0 °F 30.4 °F 14.0 °F 39% 29.97 in 10.0 mi NNE 9.2 mph - N/A   Mostly Cloudy
12:53 PM 41.0 °F 33.1 °F 10.9 °F 29% 29.92 in 10.0 mi West 15.0 mph - N/A   Overcast
1:53 PM 42.1 °F 35.7 °F 14.0 °F 32% 29.89 in 10.0 mi NW 11.5 mph 18.4 mph N/A   Overcast
2:53 PM 41.0 °F 36.4 °F 18.0 °F 40% 29.88 in 10.0 mi WNW 6.9 mph - N/A   Overcast
3:24 PM 35.6 °F 25.5 °F 26.6 °F 70% 29.91 in 10.0 mi SSW 17.3 mph 25.3 mph N/A   Overcast
3:53 PM 34.0 °F 23.8 °F 24.1 °F 67% 29.91 in 10.0 mi SSW 16.1 mph - N/A   Overcast
4:53 PM 32.0 °F 20.5 °F 24.1 °F 73% 29.96 in 10.0 mi SSW 18.4 mph - N/A   Overcast
5:53 PM 32.0 °F 20.5 °F 23.0 °F 69% 29.94 in 10.0 mi SSW 18.4 mph - N/A   Mostly Cloudy
6:53 PM 32.0 °F 22.1 °F 24.1 °F 73% 29.94 in 10.0 mi SSW 13.8 mph - N/A   Mostly Cloudy
7:53 PM 32.0 °F 21.6 °F 24.1 °F 73% 29.92 in 10.0 mi South 15.0 mph - N/A   Overcast
8:53 PM 33.1 °F 27.7 °F 24.1 °F 70% 29.87 in 10.0 mi SSE 5.8 mph - N/A   Mostly Cloudy
9:53 PM 35.1 °F - 26.1 °F 70% 29.83 in 10.0 mi Calm Calm - N/A   Clear
10:53 PM 37.9 °F - 28.9 °F 70% 29.78 in 10.0 mi Calm Calm - N/A   Partly Cloudy
11:53 PM 44.1 °F 37.1 °F 30.9 °F 60% 29.72 in 10.0 mi West 15.0 mph 26.5 mph N/A   Clear